Regional Weather Roundup
Issued by NWS

Home | Current Version | Previous Version | Graphics & Text | Print | Product List | Glossary On
Versions: 1 2 3 4 5 6 7 8 9 10 11 12 13 14 15 16 17 18 19 20 21 22 23 24 25 26 27 28 29 30 31 32 33 34 35 36 37 38 39 40 41 42 43 44 45 46 47 48 49 50
000
ASUS43 KLOT 050710
RWRIL

ILLINOIS REGIONAL WEATHER ROUNDUP
NATIONAL WEATHER SERVICE CHICAGO/ROMEOVILLE IL
100 AM CST THU MAR 05 2015

NOTE: "FAIR" INDICATES FEW OR NO CLOUDS BELOW 12,000 FEET WITH NO
SIGNIFICANT WEATHER AND/OR OBSTRUCTIONS TO VISIBILITY.

* THESE STATIONS ARE NOT UNDER NWS QUALITY CONTROL. THEY ALSO MAY NOT
  REPORT WEATHER SUCH AS PRECIPITATION OR FOG.

ILZ001-002-007-009-015-016-024-050800-
NORTHWEST ILLINOIS

CITY           SKY/WX    TMP DP  RH WIND       PRES   REMARKS
MOLINE         CLEAR     11  -1  58 N9        30.42F WCI  -2
STERLING*      PTCLDY     7   0  72 NW6       30.39F WCI  -3
SAVANNA*       PTCLDY     5  -4  68 CALM      30.41F
$$

ILZ003-004-008-010-011-017-018-050800-
NORTH CENTRAL ILLINOIS

CITY           SKY/WX    TMP DP  RH WIND       PRES   REMARKS
ROCKFORD       PTCLDY     5  -5  63 N7        30.40R WCI  -7
FREEPORT*      CLEAR      5  -5  65 NW5       30.40R WCI  -4
ROCHELLE*      CLEAR      5  -3  68 NW7       30.38S WCI  -7
DE KALB*       CLEAR      1  -6  70 NW6       30.37R WCI -10
PERU*          CLEAR      8   0  70 NW10      30.39F WCI  -6
$$

ILZ005-006-012>014-019>023-050800-
NORTHEAST ILLINOIS

CITY           SKY/WX    TMP DP  RH WIND       PRES   REMARKS
CHICAGO-OHARE  PTCLDY     9  -4  55 NW12      30.36R WCI  -6
CHICAGO-MIDWAY PTCLDY    13  -1  54 NW10      30.36R WCI   0
AURORA         CLEAR      4  -5  66 NW9       30.38R WCI -10
LANSING*       CLEAR     13   0  55 NW8       30.36R WCI   1
JOLIET*        CLEAR      8  -2  62 N5        30.38S WCI   0
WAUKEGAN       CLEAR      3  -7  63 NW5       30.36R WCI  -6
DUPAGE AIRPORT CLEAR      8  -4  58 NW12      30.36R WCI  -7
KANKAKEE*      CLEAR     10   1  66 NW8       30.37S WCI  -1
WHEELING       CLEAR      8  -4  58 NW8       30.38R WCI  -4
MORRIS*        CLEAR      7   0  71 NW7       30.37R WCI  -5
ROMEOVILLE*    CLEAR      9  -2  62 N8        30.37R WCI  -4
NORTHERLY ISL    N/A     15   0  51 NW10        N/A  WCI   3
$$

LMZ740>746-050800-
SOUTHERN LAKE MICHIGAN

STATION/POSITION SKY/WX   TEMP    WIND        PRES    VSBY  WAVE
                          AIR SEA DIR/SP/G                  HT/PER
                          (F)     (DEG/KT/KT) (MB)    (MI)  (FT/S)
WAUKEGAN HARBOR             9                   N/A
HARRISON CRIB              14     320/ 19/ 23   N/A
BURNHAM HARBOR             14     330/  9/ 15   N/A
CALUMET HARBOR             14     300/ 10/ 15 1026.5S
MICHIGAN CITY              15     280/ 12/ 14   N/A
$$

ILZ025>027-034>036-040-047-049-050-058-095>099-050800-
WEST-CENTRAL ILLINOIS

CITY           SKY/WX    TMP DP  RH WIND       PRES   REMARKS
QUINCY         MOCLDY    16   5  62 N3        30.38S
GALESBURG*     CLOUDY    12   4  69 N9        30.40F WCI   0
MACOMB*        CLOUDY    14   6  72 N13       30.42F WCI  -1
JACKSONVILLE*  CLEAR     14   3  61 N7        30.39S WCI   4
PITTSFIELD*    CLEAR     15   6  66 NW3       30.39S
$$

ILZ028>032-037-038-041>044-048-051>054-059>061-050800-
CENTRAL ILLINOIS

CITY           SKY/WX    TMP DP  RH WIND       PRES   REMARKS
PONTIAC        CLEAR     10   2  70 NW10      30.38F WCI  -4
BLOOMINGTON    CLEAR     11   2  67 N13       30.36F WCI  -4
DECATUR        MOCLDY    15   4  61 N17       30.35F WCI  -1
PEORIA         MOCLDY    13   0  56 N8        30.39F WCI   2
LACON*         CLEAR      8  -1  66 NW5       30.40F WCI  -1
LINCOLN*       PTCLDY    16   3  58 N9        30.41F WCI   4
SPRINGFIELD    CLEAR     15   3  59 N13       30.39F WCI   1
TAYLORVILLE    PTCLDY    14   5  67 N12       30.37R WCI   0
$$

ILZ033-039-045-046-055>057-062-063-050800-
EAST-CENTRAL ILLINOIS

CITY           SKY/WX    TMP DP  RH WIND       PRES   REMARKS
CHAMPAIGN      PTCLDY    14   4  64 N15       30.33F WCI  -1
DANVILLE*      PTCLDY    14   4  64 N12G18    30.32R WCI   0
RANTOUL*       CLEAR     15   6  68 N12       30.35S WCI   1
MATTOON        CLOUDY    16   6  65 N16       30.32F WCI   1
PARIS*         CLOUDY    17   9  71 N7        30.35R WCI   7
$$

ILZ079-100>102-050800-
SOUTHWEST ILLINOIS

CITY           SKY/WX    TMP DP  RH WIND       PRES   REMARKS
ALTON          MOCLDY    19   4  50 N3        30.39R
BELLEVILLE     CLOUDY    21   6  52 N9        30.38R WCI  10
CAHOKIA*       MOCLDY    22   7  52 N9        30.40R WCI  12
SPARTA*        CLOUDY    20   8  57 N8        30.38R WCI  11
$$

ILZ064>066-069>071-074>076-080>082-084>086-088>090-092>094-050800-
SOUTH-CENTRAL ILLINOIS

CITY           SKY/WX    TMP DP  RH WIND       PRES   REMARKS
CARBONDALE     CLOUDY    20   7  57 N9        30.35F WCI   9
CAIRO*           N/A     22  19  89 N5        30.33R WCI  15
EFFINGHAM*     CLOUDY    19   4  52 NW8       30.36F WCI   8
MARION         CLOUDY    21   9  58 CALM      30.35R
MT. VERNON     CLOUDY    19   3  49 N7        30.35R WCI  10
CENTRALIA*     CLOUDY    20   6  53 N13       30.36R WCI   7
SALEM*         CLOUDY    21   7  53 N10       30.36R WCI  10
METROPOLIS*    CLOUDY    19  19 100 NE7       30.30F WCI  10
$$

ILZ067-068-072-073-078-083-087-091-050800-
SOUTHEAST ILLINOIS

CITY           SKY/WX    TMP DP  RH WIND       PRES   REMARKS
LAWRENCEVILLE  CLOUDY    19   6  57 N16       30.34R WCI   4
FLORA*         CLOUDY    20   7  57 N8        30.35S WCI  10
FAIRFIELD*     CLOUDY    20   8  58 N9        30.34R WCI   9
HARRISBURG*    CLOUDY    21   8  57 N8        30.34S WCI  11
ROBINSON*      CLOUDY    19   9  65 N10       30.35S WCI   7
CARMI*         CLOUDY    22  10  60 N15       30.33S WCI   9
$$

ABBREVIATIONS USED IN REMARKS
   TC - TEMPERATURE IN CELSIUS
  WCI - WIND CHILL INDEX
   HX - HEAT INDEX
  VSB - VISIBILITY
$$



USA.gov is the U.S. government's official web portal to all federal, state and local government web resources and services.